Weather History for Caro, MI

Change the Weather History Date:

Sunday, July 21, 2013

  Actual Average (KMBS) Record (KMBS)
Temperature  
Mean Temperature 66 °F 71 °F  
Max Temperature 79 °F 82 °F 97 °F (2011)
Min Temperature 53 °F 60 °F 50 °F (2007)
Degree Days  
Heating Degree Days 0    
Month to date heating degree days  
Since 1 June heating degree days  
Since 1 July heating degree days  
Cooling Degree Days 1    
Month to date cooling degree days  
Year to date cooling degree days  
Since 1 June cooling degree days  
Growing Degree Days 16 (Base 50)    
Moisture  
Dew Point 54 °F    
Average Humidity 63    
Maximum Humidity 95    
Minimum Humidity 40    
Precipitation  
Precipitation 0.00 in 0.08 in 0.09 in (2005)
Month to date precipitation 1.71  
Year to date precipitation 16.34  
Snow  
Snow 0.00 in - - ()
Month to date snowfall  
Since 1 June snowfall  
Since 1 July snowfall  
Snow Depth -    
Sea Level Pressure  
Sea Level Pressure 29.99 in    
Wind  
Wind Speed 2 mph (NE)    
Max Wind Speed 8 mph    
Max Gust Speed -    
Visibility 10 miles    
Events      
T = Trace of Precipitation, MM = Missing Value Source: NWS Daily Summary

Daily Weather History Graph

Daily Weather History Graph

Search for Another Location

Airport:

Trip Planner

Search our weather history database for the weather conditions in past years. The results will help you decide how hot, cold, wet, or windy it might be!

Date:

Astronomy

Jul. 21, 2013 Rise Set
Actual Time 6:12 AM EDT 9:07 PM EDT
Civil Twilight 5:38 AM EDT 9:41 PM EDT
Nautical Twilight 4:55 AM EDT 10:23 PM EDT
Astronomical Twilight 4:05 AM EDT 11:14 PM EDT
Moon 8:03 PM EDT (7/21) 4:57 AM EDT (7/21)
Length of Visible Light 16h 02m
Length of Day
14h 54m
Waxing Gibbous, 98% of the Moon is Illuminated
Jul 21
Waxing Gibbous
Jul 22
Full
Jul 29
Last Quarter
Aug 6
New
Aug 14
First Quarter

Hourly Weather History & Observations

Time (EDT) Temp. Dew Point Humidity Pressure Visibility Wind Dir Wind Speed Gust Speed Precip Events Conditions
12:14 AM 63.3 °F 55.0 °F 74% 29.97 in 10.0 mi ENE 3.5 mph - N/A   Scattered Clouds
12:35 AM 62.8 °F 54.7 °F 75% 29.97 in 10.0 mi Calm Calm - N/A   Clear
12:55 AM 62.2 °F 54.0 °F 74% 29.97 in 10.0 mi ENE 3.5 mph - N/A   Clear
1:15 AM 61.7 °F 54.0 °F 76% 29.97 in 10.0 mi Calm Calm - N/A   Clear
1:35 AM 61.5 °F 54.0 °F 76% 29.97 in 10.0 mi Calm Calm - N/A   Clear
1:55 AM 61.5 °F 52.9 °F 73% 29.98 in 10.0 mi Calm Calm - N/A   Clear
2:15 AM 61.0 °F 52.2 °F 73% 29.98 in 10.0 mi Calm Calm - N/A   Clear
2:35 AM 59.5 °F 52.7 °F 78% 29.98 in 10.0 mi Calm Calm - N/A   Clear
2:55 AM 59.0 °F 53.4 °F 82% 29.98 in 10.0 mi Calm Calm - N/A   Clear
3:15 AM 57.6 °F 52.9 °F 84% 29.98 in 10.0 mi Calm Calm - N/A   Clear
3:35 AM 56.1 °F 52.7 °F 88% 29.98 in 10.0 mi Calm Calm - N/A   Clear
3:55 AM 55.6 °F 52.7 °F 90% 29.99 in 10.0 mi Calm Calm - N/A   Clear
4:15 AM 55.4 °F 53.2 °F 92% 29.99 in 10.0 mi Calm Calm - N/A   Clear
4:35 AM 54.5 °F 52.7 °F 94% 29.98 in 10.0 mi Calm Calm - N/A   Clear
4:55 AM 55.0 °F 53.6 °F 95% 29.98 in 10.0 mi Calm Calm - N/A   Clear
5:15 AM 56.7 °F 52.7 °F 87% 29.99 in 10.0 mi Calm Calm - N/A   Clear
5:35 AM 55.4 °F 52.7 °F 91% 29.99 in 10.0 mi Calm Calm - N/A   Clear
5:55 AM 55.6 °F 52.5 °F 89% 30.00 in 10.0 mi Calm Calm - N/A   Clear
6:15 AM 54.0 °F 51.6 °F 92% 29.99 in 10.0 mi Calm Calm - N/A   Clear
6:34 AM 53.6 °F 51.4 °F 92% 30.00 in 10.0 mi Calm Calm - N/A   Clear
6:55 AM 54.7 °F 52.7 °F 93% 30.02 in 10.0 mi Calm Calm - N/A   Clear
7:15 AM 55.9 °F 54.1 °F 94% 30.02 in 10.0 mi Calm Calm - N/A   Clear
7:34 AM 57.7 °F 55.6 °F 92% 30.02 in 10.0 mi Calm Calm - N/A   Clear
7:55 AM 62.1 °F 56.8 °F 83% 30.02 in 10.0 mi Calm Calm - N/A   Clear
8:15 AM 63.9 °F 57.4 °F 79% 30.02 in 10.0 mi NNE 3.5 mph - N/A   Clear
8:35 AM 65.1 °F 57.7 °F 77% 30.03 in 10.0 mi NNE 3.5 mph - N/A   Clear
8:55 AM 66.2 °F 57.6 °F 74% 30.03 in 10.0 mi Calm Calm - N/A   Scattered Clouds
9:15 AM 67.1 °F 56.5 °F 69% 30.03 in 10.0 mi SE 3.5 mph - N/A   Scattered Clouds
9:35 AM 68.0 °F 53.2 °F 59% 30.03 in 10.0 mi Calm Calm - N/A   Clear
9:55 AM 68.5 °F 54.1 °F 60% 30.03 in 10.0 mi Calm Calm - N/A   Clear
10:15 AM 70.2 °F 52.7 °F 54% 30.03 in 10.0 mi Calm Calm - N/A   Clear
10:35 AM 70.3 °F 52.0 °F 52% 30.03 in 10.0 mi Calm Calm - N/A   Scattered Clouds
10:55 AM 71.4 °F 52.7 °F 52% 30.04 in 10.0 mi NW 3.5 mph - N/A   Scattered Clouds
11:15 AM 73.0 °F 52.3 °F 48% 30.03 in 10.0 mi Calm Calm - N/A   Scattered Clouds
11:35 AM 73.8 °F 53.2 °F 49% 30.03 in 10.0 mi West 5.8 mph - N/A   Clear
11:55 AM 73.9 °F 51.8 °F 46% 30.04 in 10.0 mi Calm Calm - N/A   Clear
12:14 PM 73.9 °F 53.4 °F 49% 30.03 in 10.0 mi NW 3.5 mph - N/A   Clear
12:35 PM 75.4 °F 52.5 °F 45% 30.02 in 10.0 mi Calm Calm - N/A   Clear
12:55 PM 75.4 °F 53.2 °F 46% 30.02 in 10.0 mi Calm Calm - N/A   Clear
1:14 PM 76.6 °F 51.6 °F 42% 30.02 in 10.0 mi West 4.6 mph - N/A   Scattered Clouds
1:35 PM 75.7 °F 54.0 °F 47% 30.02 in 10.0 mi NNW 3.5 mph - N/A   Scattered Clouds
1:55 PM 75.6 °F 54.7 °F 48% 30.02 in 10.0 mi NE 3.5 mph - N/A   Scattered Clouds
2:15 PM 77.2 °F 55.2 °F 47% 30.01 in 10.0 mi Calm Calm - N/A   Scattered Clouds
2:35 PM 76.8 °F 55.0 °F 47% 30.01 in 10.0 mi Calm Calm - N/A   Scattered Clouds
2:54 PM 77.0 °F 53.1 °F 43% 30.00 in 10.0 mi Calm Calm - N/A   Clear
3:15 PM 78.8 °F 53.1 °F 41% 30.00 in 10.0 mi North 3.5 mph - N/A   Mostly Cloudy
3:35 PM 78.3 °F 53.4 °F 42% 30.00 in 10.0 mi North 5.8 mph - N/A   Mostly Cloudy
3:55 PM 79.7 °F 54.1 °F 41% 29.99 in 10.0 mi North 5.8 mph - N/A   Scattered Clouds
4:15 PM 77.9 °F 53.4 °F 43% 29.98 in 10.0 mi ENE 5.8 mph - N/A   Clear
4:35 PM 78.6 °F 54.1 °F 43% 29.98 in 10.0 mi NW 5.8 mph - N/A   Clear
4:55 PM 78.1 °F 53.1 °F 42% 29.98 in 10.0 mi North 8.1 mph - N/A   Clear
5:15 PM 77.9 °F 52.3 °F 41% 29.97 in 10.0 mi North 5.8 mph - N/A   Clear
5:35 PM 77.7 °F 51.8 °F 40% 29.97 in 10.0 mi NE 4.6 mph - N/A   Clear
5:55 PM 77.9 °F 51.4 °F 40% 29.97 in 10.0 mi NNE 5.8 mph - N/A   Clear
6:15 PM 77.7 °F 51.4 °F 40% 29.96 in 10.0 mi Calm Calm - N/A   Clear
6:35 PM 77.2 °F 51.3 °F 40% 29.95 in 10.0 mi NNE 3.5 mph - N/A   Clear
6:55 PM 76.5 °F 50.9 °F 41% 29.95 in 10.0 mi NNE 4.6 mph - N/A   Clear
7:14 PM 76.5 °F 50.9 °F 41% 29.96 in 10.0 mi NNE 4.6 mph - N/A   Clear
7:35 PM 75.6 °F 50.9 °F 42% 29.96 in 10.0 mi ENE 3.5 mph - N/A   Clear
7:55 PM 74.3 °F 51.3 °F 44% 29.96 in 10.0 mi ENE 3.5 mph - N/A   Clear
8:14 PM 74.3 °F 50.7 °F 43% 29.96 in 10.0 mi ENE 3.5 mph - N/A   Clear
8:35 PM 73.4 °F 49.6 °F 43% 29.97 in 10.0 mi ENE 3.5 mph - N/A   Clear
8:55 PM 72.0 °F 52.2 °F 50% 29.97 in 10.0 mi East 4.6 mph - N/A   Clear
9:14 PM 70.0 °F 55.4 °F 60% 29.97 in 10.0 mi East 4.6 mph - N/A   Clear
9:35 PM 69.1 °F 56.3 °F 64% 29.97 in 10.0 mi East 5.8 mph - N/A   Clear
9:55 PM 68.4 °F 55.9 °F 64% 29.98 in 10.0 mi East 8.1 mph - N/A   Clear
10:15 PM 67.3 °F 55.9 °F 67% 29.98 in 10.0 mi East 5.8 mph - N/A   Clear
10:35 PM 66.4 °F 56.3 °F 70% 29.98 in 10.0 mi East 4.6 mph - N/A   Clear
10:54 PM 65.8 °F 56.5 °F 72% 29.98 in 10.0 mi East 5.8 mph - N/A   Clear
11:15 PM 65.5 °F 56.8 °F 74% 29.98 in 10.0 mi East 5.8 mph - N/A   Clear
11:35 PM 64.6 °F 57.2 °F 77% 29.98 in 10.0 mi East 4.6 mph - N/A   Clear
11:55 PM 64.4 °F 57.2 °F 77% 29.98 in 10.0 mi East 3.5 mph - N/A   Clear